| time (UTC) | temp F | wind direction | speed MPH | gust MPH | rain 1hr in | rain 24hr in | rain mn in | humidity % | barometer mb |
| 20260505053005 | 58 | 176 | 4.0 | 8.0 | 0.00 | 0.00 | 0.00 | 56 | 1003.4 |
| 20260505051506 | 59 | 170 | 5.0 | 9.0 | 0.00 | 0.00 | 0.00 | 55 | 1003.4 |
| 20260505041601 | 59 | 154 | 4.0 | 9.0 | 0.00 | 0.00 | 0.00 | 53 | 1003.4 |
| 20260505040101 | 59 | 192 | 3.0 | 7.0 | 0.00 | 0.00 | 0.00 | 52 | 1003.4 |
| 20260505034600 | 59 | 178 | 3.0 | 8.0 | 0.00 | 0.00 | 0.00 | 52 | 1003.3 |
| 20260505033056 | 59 | 196 | 4.0 | 9.0 | 0.00 | 0.00 | 0.00 | 51 | 1003.2 |
| 20260505031609 | 58 | 163 | 4.0 | 7.0 | 0.00 | 0.00 | 0.00 | 53 | 1003.3 |
| 20260505030054 | 58 | 163 | 4.0 | 7.0 | 0.00 | 0.00 | 0.00 | 54 | 1003.5 |
| 20260505024559 | 57 | 171 | 2.0 | 7.0 | 0.00 | 0.00 | 0.00 | 55 | 1003.5 |
| 20260505023102 | 57 | 144 | 2.0 | 5.0 | 0.00 | 0.00 | 0.00 | 54 | 1003.6 |
| 20260505021547 | 58 | 138 | 1.0 | 3.0 | 0.00 | 0.00 | 0.00 | 53 | 1003.7 |
| 20260505020044 | 58 | 150 | 1.0 | 3.0 | 0.00 | 0.00 | 0.00 | 52 | 1003.6 |
| 20260505014544 | 59 | 150 | 0.0 | 3.0 | 0.00 | 0.00 | 0.00 | 51 | 1003.8 |
| 20260505013040 | 59 | 144 | 1.0 | 3.0 | 0.00 | 0.00 | 0.00 | 50 | 1003.7 |
| 20260505011540 | 59 | 144 | 1.0 | 5.0 | 0.00 | 0.00 | 0.00 | 50 | 1003.6 |
| 20260505010038 | 59 | 157 | 1.0 | 3.0 | 0.00 | 0.00 | 0.00 | 49 | 1003.5 |
| 20260505004546 | 59 | 142 | 1.0 | 3.0 | 0.00 | 0.00 | 0.00 | 49 | 1003.3 |
| 20260505003032 | 61 | 156 | 0.0 | 1.0 | 0.00 | 0.00 | 0.00 | 48 | 1003.3 |
| 20260505001531 | 63 | 156 | 0.0 | 0.0 | 0.00 | 0.00 | 0.00 | 44 | 1002.9 |
| 20260505000047 | 64 | 183 | 1.0 | 5.0 | 0.00 | 0.00 | 0.00 | 41 | 1002.9 |
| 20260504234531 | 65 | 173 | 2.0 | 8.0 | 0.00 | 0.00 | 0.00 | 39 | 1002.8 |
| 20260504233028 | 66 | 208 | 2.0 | 9.0 | 0.00 | 0.00 | 0.00 | 39 | 1002.7 |
| 20260504231530 | 67 | 179 | 5.0 | 14.0 | 0.00 | 0.00 | 0.00 | 37 | 1002.6 |
| 20260504230027 | 68 | 194 | 6.0 | 15.0 | 0.00 | 0.00 | 0.00 | 36 | 1002.6 |
| 20260504224525 | 68 | 220 | 8.0 | 14.0 | 0.00 | 0.00 | 0.00 | 35 | 1002.5 |
| 20260504223023 | 68 | 211 | 7.0 | 18.0 | 0.00 | 0.00 | 0.00 | 36 | 1002.7 |
| 20260504221521 | 69 | 200 | 5.0 | 15.0 | 0.00 | 0.00 | 0.00 | 35 | 1002.7 |
| 20260504220021 | 69 | 187 | 8.0 | 15.0 | 0.00 | 0.00 | 0.00 | 35 | 1002.7 |
| 20260504214521 | 68 | 216 | 6.0 | 14.0 | 0.00 | 0.00 | 0.00 | 35 | 1002.7 |
| 20260504213050 | 68 | 225 | 7.0 | 17.0 | 0.00 | 0.00 | 0.00 | 36 | 1002.7 |
| 20260504211549 | 68 | 170 | 6.0 | 18.0 | 0.00 | 0.00 | 0.00 | 34 | 1002.8 |
| 20260504210050 | 69 | 159 | 6.0 | 15.0 | 0.00 | 0.00 | 0.00 | 36 | 1002.9 |
| 20260504204544 | 68 | 220 | 6.0 | 14.0 | 0.00 | 0.00 | 0.00 | 36 | 1003.1 |
| 20260504203047 | 69 | 210 | 10.0 | 17.0 | 0.00 | 0.00 | 0.00 | 35 | 1003.4 |
| 20260504201543 | 68 | 191 | 7.0 | 16.0 | 0.00 | 0.00 | 0.00 | 37 | 1003.3 |
| 20260504200038 | 69 | 222 | 7.0 | 16.0 | 0.00 | 0.00 | 0.00 | 36 | 1003.6 |
| 20260504194539 | 68 | 196 | 6.0 | 18.0 | 0.00 | 0.00 | 0.00 | 36 | 1003.7 |
| 20260504193035 | 68 | 183 | 8.0 | 17.0 | 0.00 | 0.00 | 0.00 | 37 | 1003.8 |
| 20260504191536 | 68 | 167 | 5.0 | 15.0 | 0.00 | 0.00 | 0.00 | 38 | 1004.0 |
| 20260504190029 | 67 | 195 | 4.0 | 20.0 | 0.00 | 0.00 | 0.00 | 37 | 1004.0 |
| 20260504184526 | 67 | 223 | 5.0 | 16.0 | 0.00 | 0.00 | 0.00 | 38 | 1004.1 |
| 20260504183024 | 66 | 144 | 9.0 | 19.0 | 0.00 | 0.00 | 0.00 | 40 | 1004.2 |
| 20260504181527 | 65 | 183 | 8.0 | 22.0 | 0.00 | 0.00 | 0.00 | 41 | 1004.2 |
| 20260504180050 | 65 | 202 | 5.0 | 17.0 | 0.00 | 0.00 | 0.00 | 41 | 1004.2 |
| 20260504174549 | 64 | 193 | 8.0 | 20.0 | 0.00 | 0.00 | 0.00 | 43 | 1004.3 |
| 20260504173045 | 65 | 175 | 10.0 | 23.0 | 0.00 | 0.00 | 0.00 | 41 | 1004.3 |
| 20260504171542 | 64 | 196 | 12.0 | 20.0 | 0.00 | 0.00 | 0.00 | 42 | 1004.4 |
| 20260504081553 | 45 | 123 | 1.0 | 3.0 | 0.00 | 0.00 | 0.00 | 62 | 1007.6 |